COSMOS 1275 DEB, 39959

Orbit data source: Space-Track

COSMOS 1275 DEB, 39959 is space debris in LEO originally from a launch on Thu, 04 Jun 1981 UTC launched from the Plesetsk Missile And Space Complex (PKMTR). Debris objects in space refer to the collection of defunct objects orbiting the Earth. Examples of debris include non-operational satellites, rocket bodies, and fragments generated from explosions, collisions, or faulty payload assembly.

Loading next visibility...
Identifier
39959, 1981-053NV
Orbit
LEO
Country
Flag of CISCIS
Related business
Manufacturer
Unknown
Mission
Spacecraft
Bus & Motor
Unknown
Mass
Unknown
Launch date (UTC)
1981-06-04 (44 years ago)
Launch vehicle
Unknown
Launch site
Plesetsk Missile And Space Complex (PKMTR)
Object type
Payload
Rocket body
Debris
Shape & HBR
Unknown shape, 0.1 m
Radar Cross Section
Small (<0.1 m²)

Expand to show TLE details & history
Last TLE update: 1 week ago

TLE from 1 week ago
0 COSMOS 1275 DEB
1 39959U 81053NV  25280.19593265  .00000135  00000-0  12382-3 0  9997
2 39959  82.9569  85.2916 0040143 134.3147 226.1313 13.75460596569062
Epoch: 2025-10-07T04:42Z
TLE epoch observation values (Epoch: 2025-10-07T04:42:08.580Z)
Latitude
-0.00003°
Longitude
-1.33246°
Altitude
1,003.468 km
Speed
7.34 km/s
True Right ascension
05h 41m 09s
True Declination
0° 00' 00"
Sunlit
Object was in daylight at epoch
Visualization orbit readout
Latitude
Unknown
Longitude
Unknown
Altitude
Unknown
Speed
Unknown
Apparent Right ascension
Unknown
Apparent Declination
Unknown
Sunlit
N/A
Visualization observer readout
Local Sidereal Time
13:04:13
Azimuth
Unknown
Elevation
Unknown
Doppler factor
Unknown
Orbital elements
Apogee altitude
1,006.706 km
Perigee altitude
947.653 km
Semi-major axis
7,355.316 km
Eccentricity
0.00401
Inclination
82.9569°
RAAN
85.2916°
Arg. of periapsis
134.3147°
True anomaly
225.80082°
Mean anomaly
226.1313°
Eccentric anomaly
225.96595°
Mean motion
3.44066 °/min
Orbital period
104.63 mins
BSTAR
0.00012382
Loading maneuver chart data...
Computing Atmospheric mass density...

Documentation

Showing up to 5 results
|